Location: Newark
(39.6867°N, 100.6772°W)
Time: 19:16:28
(UTC+00:00)

Courier 1B Rocket - All Passes

Search period start: 16 October 2019 00:00
Search period end: 26 October 2019 00:00
Orbit: 920 x 1202 km, 28.2° (Epoch: 15 October)

Date Brightness Start Highest point End Pass type
(mag) Time Alt. Az. Time Alt. Az. Time Alt. Az.
16 Oct - 10:36:17 10° SSW 10:39:55 16° SSE 10:43:38 10° ESE visible
16 Oct - 12:27:07 10° SW 12:32:24 28° S 12:37:57 10° ESE visible
16 Oct - 14:19:36 10° WSW 14:25:08 29° S 14:30:58 10° SE daylight
16 Oct - 16:13:21 10° WSW 16:17:51 18° SSW 16:22:32 10° SSE daylight
17 Oct - 09:37:20 10° S 09:39:15 11° SSE 09:41:11 10° SE visible
17 Oct - 11:26:42 10° SW 11:31:38 24° SSE 11:36:44 10° ESE visible
17 Oct - 13:18:49 10° WSW 13:24:17 30° S 13:30:02 10° ESE daylight
17 Oct - 15:12:04 10° WSW 15:17:00 22° SSW 15:22:11 10° SSE daylight
18 Oct - 10:26:30 10° SSW 10:30:55 20° SSE 10:35:25 10° ESE visible
18 Oct - 12:18:09 10° SW 12:23:29 29° S 12:29:02 10° ESE visible
18 Oct - 14:11:01 10° WSW 14:16:11 25° S 14:21:36 10° SE daylight
18 Oct - 16:05:48 10° SW 16:08:47 13° SSW 16:11:51 10° S daylight
19 Oct - 09:26:36 10° SSW 09:30:13 16° SSE 09:33:51 10° ESE visible
19 Oct - 11:17:34 10° SW 11:22:43 27° S 11:28:00 10° ESE visible
19 Oct - 13:10:07 10° WSW 13:15:22 28° S 13:20:51 10° SE daylight
19 Oct - 15:03:58 10° WSW 15:08:00 17° SSW 15:12:11 10° SSE daylight
20 Oct - 08:27:27 10° S 08:29:33 12° SSE 08:31:39 10° SE visible
20 Oct - 10:17:06 10° SW 10:21:58 24° SSE 10:26:54 10° ESE visible
20 Oct - 12:09:19 10° WSW 12:14:35 29° S 12:20:02 10° SE visible
20 Oct - 14:02:38 10° WSW 14:07:13 21° SSW 14:11:59 10° SSE daylight
21 Oct - 09:16:47 10° SSW 09:21:15 20° SSE 09:25:42 10° ESE visible
21 Oct - 11:08:35 10° SW 11:13:49 29° S 11:19:09 10° ESE visible
21 Oct - 13:01:32 10° WSW 13:06:27 24° SSW 13:11:31 10° SE daylight
21 Oct - 14:56:43 10° SW 14:58:58 12° SSW 15:01:16 10° S daylight
22 Oct - 08:16:45 10° SSW 08:20:33 16° SSE 08:24:17 10° ESE night (unlit)
22 Oct - 10:07:55 10° SW 10:13:04 27° S 10:18:13 10° ESE visible
22 Oct - 12:00:35 10° WSW 12:05:42 27° S 12:10:54 10° SE visible
22 Oct - 13:54:37 10° SW 13:58:14 16° SSW 14:01:57 10° SSE daylight
23 Oct - 07:17:17 10° S 07:19:50 12° SSE 07:22:21 10° SE night (unlit)
23 Oct - 09:07:20 10° SW 09:12:20 24° S 09:17:14 10° ESE visible
23 Oct - 10:59:42 10° WSW 11:04:56 28° S 11:10:11 10° SE visible
23 Oct - 12:53:10 10° WSW 12:57:30 20° SSW 13:01:55 10° SSE daylight
24 Oct - 08:06:54 10° SSW 08:11:35 21° SSE 08:16:08 10° ESE night (unlit)
24 Oct - 09:58:53 10° SW 10:04:11 29° S 10:09:25 10° ESE visible
24 Oct - 11:52:00 10° WSW 11:56:46 23° SSW 12:01:36 10° SE visible
24 Oct - 13:47:45 10° SW 13:49:13 11° SSW 13:50:41 10° S daylight
25 Oct - 07:06:41 10° SSW 07:10:50 17° SSE 07:14:51 10° ESE night (unlit)
25 Oct - 08:58:07 10° SW 09:03:25 28° S 09:08:35 10° ESE visible
25 Oct - 10:50:57 10° WSW 10:56:02 26° S 11:01:07 10° SE visible
25 Oct - 12:45:12 10° SW 12:48:31 15° SSW 12:51:52 10° S daylight
